Temp
79 78 72 68 58 55 54 62 64 68 71 72 79 76 72 73 70 59 77 82 80 79 81 81 81 82 82 82 82 81 81 80 80 80 80 80 80 80 80 80 80 80 80 80 80 79 79 79 79
75 79 69 61 54 50 55 63 65 68 73 77 77 77 74 70 78 77 77 85 82 81 81 80 81 81 81 82 81 81 81 81 80 80 80 80 80 80 80 80 80 80 80 80 79 79 79 79 78
77 78 63 57 53 52 55 64 67 74 78 77 74 76 72 71 80 78 82 86 83 81 81 81 81 81 81 81 81 81 81 80 80 80 80 80 80 80 80 80 80 80 80 79 79 78 79 78 78
73 68 64 57 55 61 64 64 71 73 77 77 72 70 75 80 79 80 85 87 83 80 81 80 80 81 81 81 81 81 80 80 80 80 80 80 80 80 80 80 80 79 79 79 79 78 78 78 78
69 63 56 54 60 61 66 71 74 69 71 73 75 67 71 80 84 84 85 87 81 79 79 81 81 81 81 81 81 81 80 80 80 80 80 80 80 80 80 80 80 79 79 79 79 78 78 78 78
63 62 54 52 59 64 67 69 72 70 70 72 70 69 68 78 81 81 85 83 81 79 79 79 80 80 80 81 80 80 80 80 80 80 80 80 80 80 79 79 80 79 79 79 79 79 78 78 78
60 57 54 56 57 62 68 71 68 67 69 71 74 66 67 76 80 81 79 80 80 79 78 76 76 77 78 79 80 80 80 79 79 79 79 79 79 79 79 79 79 79 79 78 78 78 78 78 78
63 59 55 55 57 58 69 72 73 71 70 77 75 63 60 73 77 79 79 77 76 76 75 74 74 74 73 73 76 77 78 79 79 78 78 77 77 78 78 78 78 79 79 79 78 78 78 78 78
68 55 52 56 59 60 70 68 75 76 72 73 72 69 69 75 77 74 73 72 71 73 72 71 71 72 71 74 74 73 75 75 75 75 76 76 74 75 76 76 77 78 78 77 78 78 77 77 77
61 53 57 64 63 61 69 68 70 69 66 65 68 70 73 72 71 69 67 65 67 67 70 69 69 69 70 74 68 67 70 71 72 71 71 70 70 72 76 75 76 77 78 77 77 77 77 76 71
64 57 65 67 69 69 67 68 71 64 60 62 62 64 67 68 67 66 66 64 63 64 65 66 67 66 66 66 66 63 65 66 69 72 71 69 70 69 69 68 70 70 75 72 74 73 73 72 71
61 68 69 69 70 68 65 69 64 64 62 68 66 64 65 63 63 63 63 62 61 63 63 64 64 64 64 62 61 61 62 63 66 67 68 70 67 68 67 68 68 67 70 68 69 69 71 73 73
62 64 70 70 70 67 69 64 64 63 68 70 68 65 62 61 61 61 62 63 62 61 63 63 63 62 64 64 61 61 61 62 63 65 67 66 68 66 67 67 67 67 66 67 66 65 67 70 71
64 67 67 68 68 66 64 63 65 64 69 68 65 61 60 59 59 60 60 59 58 61 61 63 63 62 62 62 60 61 62 62 64 63 64 67 65 64 64 65 66 67 68 66 65 65 64 66 70
67 60 62 64 64 62 64 60 59 66 67 62 60 57 59 59 59 57 59 59 58 58 61 62 65 61 60 58 58 59 59 61 61 62 64 65 65 64 61 61 63 64 65 68 65 66 67 67 67
59 56 49 61 63 62 61 50 61 65 62 59 56 54 57 57 58 58 61 60 59 57 58 60 64 60 59 58 57 60 58 56 58 60 61 63 64 64 61 59 60 62 63 64 66 65 64 63 64
51 44 48 54 61 59 57 49 58 63 61 56 53 53 55 55 57 58 60 59 60 57 57 58 58 58 58 57 56 56 56 56 55 56 59 60 61 63 62 60 60 60 60 60 62 65 66 64 63
42 42 48 47 55 54 50 49 55 60 57 53 51 51 52 54 54 58 60 60 60 57 57 57 57 57 56 54 54 53 53 54 55 56 56 59 59 60 60 60 60 60 59 60 59 61 63 64 64
51 48 47 50 56 50 47 49 52 54 53 50 49 49 50 51 52 56 58 58 57 57 56 56 56 55 54 52 50 50 49 51 52 53 56 58 58 58 58 57 59 59 59 59 60 59 60 60 62
50 46 44 49 55 51 47 47 48 52 50 51 50 48 49 51 52 53 56 55 55 54 53 55 55 56 55 52 52 51 50 51 51 53 54 55 57 57 58 56 56 57 57 58 58 59 58 59 61
47 42 42 42 48 49 47 41 43 48 51 52 50 49 49 49 49 51 53 51 52 52 52 56 55 56 55 54 52 52 51 50 49 50 50 53 55 56 55 55 56 56 56 54 56 58 58 57 59
40 50 49 47 40 32 45 28 39 42 44 46 43 44 45 47 50 51 52 52 52 53 53 54 55 55 56 54 51 49 47 46 48 49 50 52 53 54 54 55 55 55 55 51 54 58 57 58 56
45 50 48 46 38 34 38 32 31 42 40 41 43 45 46 47 48 49 49 52 53 52 51 51 53 53 56 54 53 50 51 49 49 48 49 50 51 52 53 53 55 54 55 52 52 54 53 55 56
51 47 43 41 36 28 34 33 28 34 40 41 44 46 48 48 49 50 51 52 51 51 52 51 52 52 53 52 53 51 49 49 48 48 48 50 49 49 51 53 52 53 53 52 51 52 52 54 56
45 35 27 28 28 29 40 32 30 40 45 44 45 45 48 46 47 48 49 48 50 50 50 52 51 50 51 51 50 50 49 48 47 49 51 50 49 48 49 50 49 51 53 53 52 51 51 53 55
41 36 25 21 21 28 36 27 33 43 47 46 48 46 48 48 48 48 48 48 48 50 49 49 49 49 50 50 49 48 48 47 48 49 50 49 49 50 50 49 49 51 53 53 53 55 55 54 54
39 31 38 28 26 20 26 34 44 44 41 43 44 46 44 45 46 46 47 48 48 48 49 49 49 49 50 49 48 48 48 48 50 48 48 48 49 52 52 49 49 51 51 52 54 54 54 54 54
42 43 29 26 13 16 22 27 24 32 33 37 37 39 40 43 47 48 49 49 49 48 48 48 49 48 48 48 48 53 49 49 51 49 47 49 49 48 48 49 49 50 50 52 53 52 54 53 54
35 31 32 29 28 17 16 20 38 33 35 34 36 39 40 44 46 48 49 52 47 48 48 49 49 48 47 48 48 50 49 50 50 48 50 48 49 52 52 51 49 50 50 49 50 49 51 52 54
40 33 30 16 19 24 15 20 39 36 37 38 38 40 43 48 47 48 48 49 49 48 46 48 49 46 49 48 52 51 50 50 48 50 49 50 50 51 50 49 50 49 48 49 50 50 52 52 53
MSLP
1010.82 1010.41 1010.83 1011.40 1012.36 1012.27 1011.17 1010.25 1008.80 1008.11 1007.74 1007.63 1007.27 1008.14 1008.88 1009.19 1009.81 1011.07 1010.84 1010.78 1011.28 1011.84 1012.13 1012.44 1012.70 1012.83 1013.03 1013.12 1013.34 1013.50 1013.51 1013.66 1013.61 1013.65 1013.80 1013.75 1013.87 1013.77 1013.74 1013.81 1013.88 1013.97 1013.87 1013.89 1013.86 1013.87 1013.97 1013.99 1013.97
1010.88 1010.68 1011.17 1011.82 1012.22 1012.27 1011.35 1010.07 1009.11 1008.37 1007.78 1007.57 1007.78 1008.42 1008.97 1010.17 1010.04 1010.51 1010.57 1010.60 1011.07 1011.52 1012.02 1012.32 1012.76 1012.94 1012.99 1013.24 1013.29 1013.43 1013.44 1013.62 1013.64 1013.58 1013.79 1013.79 1013.72 1013.75 1013.76 1013.72 1013.80 1013.86 1013.85 1013.90 1013.88 1013.85 1013.96 1014.02 1013.97
1011.18 1011.20 1011.96 1012.14 1012.27 1011.85 1011.31 1010.09 1009.11 1008.29 1007.95 1008.09 1008.36 1008.86 1009.70 1010.36 1010.18 1010.25 1010.07 1010.25 1010.92 1011.33 1011.61 1012.03 1012.55 1012.78 1012.95 1013.22 1013.31 1013.39 1013.48 1013.54 1013.59 1013.56 1013.62 1013.71 1013.70 1013.71 1013.77 1013.78 1013.78 1013.78 1013.79 1013.84 1013.82 1013.79 1013.82 1013.95 1013.95
1010.99 1011.41 1011.85 1011.98 1012.11 1011.48 1010.62 1009.83 1009.19 1008.70 1008.58 1008.60 1009.14 1010.36 1010.64 1010.06 1010.17 1010.03 1009.99 1010.24 1010.76 1011.23 1011.58 1012.16 1012.48 1012.66 1012.91 1013.11 1013.19 1013.31 1013.37 1013.44 1013.43 1013.43 1013.50 1013.53 1013.56 1013.60 1013.58 1013.61 1013.60 1013.63 1013.69 1013.76 1013.78 1013.83 1013.85 1013.83 1013.99
1011.04 1011.97 1012.27 1012.33 1011.92 1011.37 1010.52 1009.88 1009.62 1009.67 1009.58 1010.01 1010.12 1011.47 1011.24 1010.89 1010.31 1010.07 1010.16 1010.38 1011.09 1011.87 1012.02 1012.11 1012.30 1012.61 1012.75 1012.95 1013.14 1013.20 1013.30 1013.36 1013.40 1013.42 1013.37 1013.40 1013.36 1013.36 1013.41 1013.48 1013.50 1013.50 1013.57 1013.61 1013.73 1013.81 1013.86 1013.95 1014.00
1011.59 1012.11 1012.51 1012.25 1012.15 1011.31 1010.64 1010.31 1010.35 1010.34 1010.25 1010.35 1011.06 1011.55 1012.13 1011.46 1011.15 1010.92 1010.74 1011.43 1011.86 1012.35 1012.48 1012.81 1012.85 1012.85 1012.88 1012.89 1012.90 1012.94 1013.02 1013.05 1013.12 1013.17 1013.19 1013.18 1013.11 1013.13 1013.14 1013.23 1013.25 1013.33 1013.47 1013.50 1013.57 1013.70 1013.78 1013.93 1014.02
1011.80 1012.46 1012.51 1012.32 1012.18 1011.57 1011.16 1010.34 1010.58 1010.84 1010.71 1010.79 1010.82 1012.17 1012.62 1011.98 1011.42 1011.73 1012.13 1012.35 1012.84 1013.05 1013.34 1013.74 1013.71 1013.63 1013.32 1013.01 1013.00 1012.98 1012.94 1012.94 1012.93 1012.94 1012.93 1012.84 1012.83 1012.78 1012.75 1012.83 1012.88 1012.96 1013.12 1013.28 1013.42 1013.59 1013.64 1013.70 1013.82
1011.68 1012.45 1012.72 1012.84 1012.45 1012.25 1011.34 1010.72 1010.62 1010.80 1011.20 1010.89 1011.32 1012.79 1013.18 1012.82 1012.16 1012.36 1012.62 1013.15 1013.63 1014.27 1014.50 1014.69 1014.52 1014.28 1014.03 1013.91 1013.67 1013.46 1013.07 1013.00 1012.92 1012.95 1012.82 1012.67 1012.56 1012.49 1012.42 1012.36 1012.43 1012.54 1012.68 1012.81 1013.02 1013.24 1013.40 1013.50 1013.60
1011.25 1012.46 1013.08 1012.85 1012.44 1012.37 1011.58 1011.36 1010.96 1010.89 1011.63 1012.13 1012.74 1013.36 1013.63 1013.30 1013.15 1013.19 1013.59 1013.98 1014.32 1014.46 1014.85 1015.26 1015.23 1015.14 1014.87 1014.46 1014.40 1014.10 1013.78 1013.62 1013.32 1013.12 1012.95 1012.70 1012.45 1012.15 1011.98 1011.90 1011.94 1011.99 1012.18 1012.35 1012.43 1012.56 1012.69 1012.92 1013.18
1011.53 1012.62 1012.66 1012.57 1012.48 1012.46 1012.00 1011.84 1011.57 1011.78 1012.48 1013.35 1013.48 1013.72 1013.64 1013.72 1014.08 1014.56 1014.97 1015.29 1015.28 1015.43 1015.39 1015.48 1015.45 1015.57 1015.38 1015.12 1015.13 1014.81 1014.37 1013.92 1013.68 1013.49 1013.25 1013.05 1012.81 1012.39 1011.92 1011.55 1011.33 1011.42 1011.54 1011.64 1011.92 1012.01 1012.11 1012.39 1012.68
1011.60 1012.39 1012.41 1012.48 1012.48 1012.59 1012.56 1012.22 1012.13 1012.46 1013.68 1014.26 1014.72 1015.07 1014.98 1014.91 1015.30 1015.61 1016.01 1016.32 1016.40 1016.47 1016.27 1016.17 1016.03 1015.93 1015.84 1015.70 1015.48 1015.25 1014.91 1014.48 1014.08 1013.76 1013.25 1013.03 1012.71 1012.29 1012.25 1011.93 1011.53 1011.31 1010.86 1011.15 1011.52 1011.53 1011.57 1011.66 1011.90
1012.00 1012.22 1012.28 1012.53 1012.64 1012.83 1012.99 1012.75 1013.01 1013.37 1014.29 1014.42 1014.89 1015.35 1015.67 1016.25 1016.68 1017.00 1017.26 1017.43 1017.37 1017.19 1017.11 1016.88 1016.72 1016.50 1016.31 1016.15 1015.93 1015.56 1015.16 1014.76 1014.39 1013.97 1013.53 1013.01 1012.59 1012.30 1012.18 1012.08 1011.76 1011.52 1010.90 1010.99 1011.09 1011.23 1011.08 1010.89 1011.17
1012.24 1012.37 1012.38 1012.47 1012.53 1012.92 1012.90 1013.18 1013.26 1013.79 1013.96 1014.22 1014.81 1015.48 1016.35 1016.98 1017.42 1017.70 1017.81 1017.96 1018.10 1018.12 1017.98 1017.72 1017.44 1017.29 1016.84 1016.59 1016.40 1015.99 1015.57 1015.18 1014.84 1014.29 1013.81 1013.45 1012.91 1012.62 1012.20 1012.06 1011.92 1011.63 1011.32 1011.00 1010.89 1010.98 1010.93 1010.80 1010.80
1012.64 1012.64 1012.62 1012.58 1012.78 1013.02 1013.07 1012.74 1013.11 1013.78 1013.74 1014.58 1015.62 1016.54 1017.14 1017.52 1017.85 1018.11 1018.37 1018.58 1018.50 1018.48 1018.36 1018.12 1018.08 1017.99 1017.65 1017.36 1016.96 1016.56 1016.08 1015.54 1015.05 1014.81 1014.50 1013.97 1013.57 1013.05 1012.65 1012.33 1011.99 1011.69 1011.42 1011.16 1010.95 1010.76 1010.52 1010.52 1010.59
1012.85 1013.16 1013.16 1013.11 1013.09 1013.27 1013.13 1013.47 1013.66 1013.97 1014.38 1015.53 1016.53 1017.17 1017.65 1018.00 1018.18 1018.53 1018.67 1018.81 1018.78 1018.72 1018.47 1018.36 1018.31 1018.26 1018.13 1017.92 1017.56 1017.11 1016.70 1016.12 1015.58 1015.10 1014.63 1014.32 1014.06 1013.57 1013.04 1012.60 1012.25 1011.78 1011.29 1010.96 1010.85 1010.70 1010.60 1010.52 1010.07
1013.78 1014.00 1014.36 1013.91 1014.04 1014.17 1014.15 1014.61 1014.53 1015.16 1015.56 1016.60 1017.32 1017.82 1017.99 1018.38 1018.42 1018.57 1018.62 1018.72 1018.77 1018.92 1018.86 1018.60 1018.50 1018.40 1018.34 1018.21 1018.01 1017.53 1017.06 1016.57 1016.08 1015.52 1014.95 1014.42 1014.12 1013.71 1013.28 1012.80 1012.33 1011.92 1011.42 1011.02 1010.75 1010.36 1010.00 1010.05 1009.87
1015.90 1016.04 1015.99 1015.40 1015.04 1015.13 1015.40 1015.62 1015.80 1015.62 1016.30 1017.43 1018.11 1018.78 1019.16 1019.34 1019.30 1019.34 1019.12 1018.98 1018.84 1018.87 1018.79 1018.64 1018.45 1018.24 1018.12 1018.18 1018.02 1017.81 1017.37 1016.87 1016.35 1015.75 1015.25 1014.86 1014.34 1013.93 1013.47 1013.10 1012.48 1011.85 1011.56 1011.12 1010.81 1010.35 1010.07 1009.81 1009.45
1017.97 1017.71 1017.10 1016.80 1016.38 1016.26 1016.30 1016.67 1016.50 1016.39 1017.21 1018.60 1019.33 1019.73 1020.13 1020.16 1020.10 1019.72 1019.52 1019.44 1019.17 1019.04 1018.75 1018.53 1018.37 1018.11 1017.88 1017.88 1017.89 1017.85 1017.50 1016.99 1016.53 1016.03 1015.40 1014.95 1014.54 1014.08 1013.77 1013.11 1012.50 1012.02 1011.60 1011.21 1010.76 1010.50 1010.01 1009.69 1009.27
1018.73 1018.59 1018.27 1017.41 1017.41 1017.49 1017.13 1017.60 1017.24 1017.15 1018.05 1019.25 1020.05 1020.34 1020.52 1020.49 1020.28 1019.98 1019.70 1019.60 1019.55 1019.33 1019.19 1018.74 1018.35 1017.98 1017.53 1017.62 1017.85 1017.63 1017.72 1017.40 1016.85 1016.16 1015.65 1014.97 1014.49 1014.12 1013.90 1013.27 1012.62 1012.04 1011.65 1011.16 1010.78 1010.20 1009.86 1009.48 1009.10
1019.49 1019.40 1019.36 1018.65 1018.29 1018.84 1018.34 1018.91 1019.10 1019.05 1019.69 1020.04 1020.63 1021.00 1021.12 1020.95 1020.89 1020.63 1020.35 1020.00 1019.80 1019.72 1019.29 1018.79 1018.32 1017.95 1017.49 1017.18 1017.10 1017.10 1016.96 1016.73 1016.49 1015.88 1015.39 1015.03 1014.51 1014.03 1013.55 1013.28 1012.70 1012.08 1011.41 1010.96 1010.61 1010.24 1009.69 1009.13 1008.90
1020.61 1020.57 1020.44 1020.51 1020.02 1019.12 1019.35 1020.18 1020.47 1020.83 1021.02 1021.34 1021.61 1021.91 1021.80 1021.72 1021.51 1021.23 1020.83 1020.73 1020.19 1019.68 1019.28 1018.76 1018.31 1017.78 1017.20 1016.92 1016.74 1016.64 1016.51 1016.40 1016.16 1015.59 1015.21 1014.71 1014.33 1013.85 1013.25 1012.92 1012.58 1012.01 1011.53 1010.93 1010.50 1010.09 1009.61 1009.03 1008.42
1021.50 1021.17 1021.10 1020.83 1021.50 1021.38 1021.18 1021.85 1021.75 1021.98 1022.23 1022.37 1022.53 1022.39 1022.28 1021.82 1021.47 1021.27 1020.95 1020.68 1020.36 1019.94 1019.49 1018.82 1018.47 1017.65 1016.92 1016.52 1016.48 1016.40 1016.48 1016.27 1015.50 1015.18 1014.53 1014.32 1013.88 1013.30 1012.88 1012.26 1012.07 1011.64 1011.29 1010.78 1010.12 1009.61 1009.39 1008.92 1008.28
1022.40 1022.09 1021.08 1020.93 1021.89 1022.19 1022.59 1022.74 1023.23 1022.79 1023.13 1023.27 1023.08 1022.73 1022.47 1022.04 1021.76 1021.44 1021.01 1020.63 1020.07 1019.62 1018.97 1018.59 1017.97 1017.32 1016.72 1016.40 1016.16 1016.23 1015.75 1015.35 1014.62 1014.36 1013.98 1013.60 1013.16 1012.76 1012.32 1011.98 1011.65 1011.17 1010.98 1010.72 1010.03 1009.50 1009.37 1008.96 1008.32
1022.65 1022.03 1021.09 1021.10 1022.31 1023.18 1023.35 1023.68 1024.12 1024.28 1024.62 1024.27 1024.03 1023.63 1023.33 1022.64 1022.17 1021.52 1020.96 1020.50 1019.98 1019.27 1018.68 1018.21 1017.74 1017.36 1016.79 1016.39 1016.01 1015.72 1015.50 1014.95 1014.51 1014.02 1013.51 1012.94 1012.55 1012.08 1011.83 1011.52 1011.19 1010.72 1010.43 1010.16 1009.77 1009.13 1008.86 1008.43 1007.91
1023.76 1023.81 1023.81 1023.79 1024.13 1024.31 1023.50 1024.15 1024.81 1025.00 1024.93 1024.54 1024.15 1023.73 1023.35 1022.88 1022.36 1021.92 1021.30 1020.66 1020.04 1019.21 1018.49 1018.13 1017.84 1017.37 1016.76 1016.22 1015.75 1015.25 1014.87 1014.45 1014.06 1013.55 1012.95 1012.31 1011.92 1011.60 1011.16 1010.85 1010.72 1010.30 1009.93 1009.30 1009.04 1008.59 1008.17 1007.92 1007.40
1025.45 1026.08 1027.80 1028.20 1027.73 1026.42 1025.25 1025.02 1024.98 1025.06 1025.44 1025.25 1024.68 1024.55 1024.06 1023.45 1022.79 1022.11 1021.25 1020.43 1019.78 1018.89 1018.42 1018.03 1017.56 1017.04 1016.47 1015.89 1015.40 1014.89 1014.46 1014.05 1013.51 1012.81 1012.23 1011.84 1011.32 1010.82 1010.36 1010.17 1009.97 1009.70 1009.26 1008.67 1008.09 1007.59 1007.28 1006.97 1006.66
1026.50 1027.54 1028.37 1029.07 1029.06 1028.43 1026.68 1025.25 1023.82 1024.69 1025.71 1025.69 1025.68 1025.06 1024.48 1023.84 1022.80 1022.08 1021.23 1020.20 1019.41 1018.87 1018.44 1017.95 1017.32 1016.67 1016.13 1015.57 1014.91 1014.36 1013.79 1013.34 1012.78 1012.10 1011.53 1011.10 1010.59 1010.13 1009.68 1009.47 1009.14 1008.71 1008.47 1007.89 1007.20 1006.65 1006.36 1006.20 1005.95
1027.02 1027.83 1029.02 1030.53 1030.96 1030.55 1028.14 1027.39 1027.16 1027.19 1027.83 1027.44 1026.71 1026.26 1025.54 1024.45 1022.84 1022.38 1021.40 1020.11 1019.20 1018.54 1018.04 1017.36 1016.86 1016.28 1015.66 1015.08 1014.50 1013.85 1013.27 1012.59 1011.91 1011.42 1010.98 1010.38 1009.92 1009.49 1009.10 1008.74 1008.44 1008.03 1007.59 1007.06 1006.52 1006.11 1005.78 1005.48 1004.97
1028.44 1029.84 1031.04 1032.15 1032.51 1032.20 1030.61 1029.38 1029.18 1029.83 1029.33 1028.43 1027.81 1026.81 1025.56 1024.38 1023.07 1022.29 1021.34 1020.24 1019.39 1018.56 1017.92 1017.16 1016.49 1015.87 1015.31 1014.60 1013.90 1013.22 1012.58 1011.80 1011.16 1010.68 1010.03 1009.52 1009.02 1008.62 1008.16 1007.71 1007.37 1006.97 1006.53 1006.18 1005.84 1005.44 1004.93 1004.52 1004.12
1029.98 1031.40 1032.33 1033.32 1033.86 1033.64 1032.92 1030.65 1029.78 1029.89 1029.90 1029.35 1028.11 1026.59 1025.40 1024.16 1023.13 1022.20 1021.21 1020.21 1019.26 1018.45 1017.69 1016.86 1016.14 1015.53 1014.84 1013.95 1013.07 1012.40 1011.74 1011.07 1010.52 1009.77 1009.12 1008.59 1008.01 1007.54 1007.28 1006.90 1006.32 1005.82 1005.62 1005.35 1004.90 1004.28 1003.74 1003.40 1003.12
Wind_Speed
11 8 2 4 6 5 4 5 3 11 6 2 4 10 11 5 6 5 3 9 15 12 10 9 9 9 9 8 7 6 6 5 5 4 3 3 2 3 5 5 6 5 5 5 6 5 6 6 6
5 6 4 2 5 5 5 3 9 4 2 6 2 12 18 10 5 8 3 10 16 13 11 9 10 8 7 6 8 8 7 6 6 5 4 3 2 2 2 4 6 6 5 6 6 5 6 5 5
5 3 4 4 3 2 3 4 4 4 9 6 5 7 5 1 5 4 6 10 16 13 12 11 13 10 6 6 6 8 7 7 6 6 5 5 4 4 4 4 7 7 6 6 7 6 6 5 4
1 5 5 4 3 4 7 3 6 3 9 12 4 7 4 5 3 4 3 8 12 11 10 12 12 10 7 5 7 8 9 8 8 8 7 7 7 7 7 7 7 8 8 7 8 7 6 6 5
3 3 3 3 5 1 7 8 8 9 5 10 14 4 6 7 6 5 8 12 13 9 9 10 13 10 8 6 6 8 9 9 8 8 8 9 10 10 9 9 9 10 10 10 9 9 8 7 7
4 3 4 2 6 5 7 7 8 6 5 5 10 8 4 7 9 7 11 13 10 10 8 7 6 6 5 6 7 7 8 9 9 9 10 10 11 11 11 12 11 11 12 12 11 11 10 9 8
3 3 2 3 4 7 6 4 6 4 5 7 3 6 1 8 8 15 16 17 18 16 15 12 12 12 11 8 7 8 8 8 9 10 11 12 12 12 12 13 14 14 14 14 12 12 11 11 11
4 4 5 6 3 3 7 3 3 5 5 2 4 5 2 6 9 12 15 15 16 15 14 13 13 13 11 9 17 18 10 9 9 11 11 11 12 13 14 15 16 17 16 16 15 14 13 12 12
3 6 4 3 4 1 7 6 7 4 8 12 5 6 2 9 13 15 12 14 12 13 14 11 11 11 10 9 12 15 16 15 16 12 13 11 6 9 12 13 17 19 18 17 16 16 16 13 12
5 4 2 3 2 3 7 6 4 6 5 5 7 12 12 15 14 15 13 12 13 14 14 12 13 12 11 9 8 7 8 7 6 6 5 5 7 7 10 12 16 19 19 18 17 17 16 13 5
3 3 2 3 5 6 6 7 5 3 6 4 6 9 14 15 15 13 14 8 8 6 9 9 9 9 10 9 7 5 5 5 6 8 6 5 4 4 3 3 5 5 14 7 11 10 7 9 7
5 5 5 3 4 4 6 8 3 5 3 7 9 8 12 13 13 12 13 11 8 10 9 9 8 8 8 5 5 5 5 5 6 7 8 6 3 3 4 3 4 5 3 4 5 4 7 10 11
5 2 5 5 3 5 6 5 1 7 8 9 11 12 10 10 10 9 9 11 9 9 9 9 8 8 8 9 6 6 6 5 7 8 9 8 8 5 4 4 4 3 4 4 4 4 5 7 10
3 2 3 4 5 3 1 7 5 7 8 8 13 10 9 11 9 9 9 9 9 7 8 9 9 10 10 8 8 7 7 7 8 8 10 12 7 6 5 6 6 4 3 4 5 7 7 7 8
2 2 1 3 3 2 3 8 2 7 5 9 10 9 9 9 10 9 7 7 7 5 7 9 10 9 10 9 7 7 7 7 7 7 10 12 11 10 6 6 7 5 4 6 5 6 8 8 6
4 5 2 4 5 4 6 6 2 6 7 10 8 7 8 8 9 8 8 6 7 6 7 7 7 7 8 8 7 8 6 5 6 8 7 10 12 12 8 5 5 6 4 5 6 4 4 4 5
9 2 4 8 3 2 5 7 7 5 7 7 8 7 8 7 9 8 7 5 6 5 5 5 4 5 5 6 5 6 7 6 5 5 6 10 10 11 9 9 7 6 6 4 4 7 5 6 5
4 4 4 6 6 9 6 7 8 10 8 8 9 9 9 10 7 6 7 8 7 6 3 3 3 4 4 2 4 4 5 5 6 7 5 9 8 10 10 9 9 9 7 7 4 4 5 6 6
6 4 8 5 5 11 5 14 10 5 11 13 9 9 9 8 2 6 7 7 8 8 7 6 3 3 2 1 2 2 3 4 4 5 8 11 8 10 10 8 9 9 8 9 10 5 5 5 4
8 6 6 10 10 11 8 12 10 12 8 10 11 9 9 10 11 10 9 9 9 8 7 9 6 4 2 1 3 3 3 3 4 4 6 8 10 10 10 9 9 10 9 10 8 8 5 4 4
6 2 5 8 12 9 6 4 5 6 11 13 11 7 8 7 8 8 8 7 7 9 9 9 7 6 5 5 2 3 3 3 3 4 4 5 7 10 10 8 10 11 8 8 9 8 9 8 6
6 3 9 16 6 3 7 6 4 4 8 9 9 9 7 8 7 7 8 8 8 9 9 9 9 8 7 5 3 5 4 5 5 4 4 6 7 8 7 10 11 11 9 8 9 7 7 7 8
7 12 19 17 6 2 9 4 2 6 7 8 8 7 8 7 6 6 6 6 7 6 5 7 7 8 10 8 5 5 10 7 5 4 7 7 8 7 7 7 11 10 8 7 6 9 9 7 8
11 10 12 3 5 3 3 5 4 4 5 5 6 9 9 9 8 8 7 7 7 8 8 8 8 8 8 7 9 9 10 10 8 7 7 7 6 5 6 7 7 8 11 9 8 9 9 9 9
11 8 7 8 7 5 16 7 5 5 15 7 14 10 12 8 8 8 8 8 8 8 8 7 7 8 8 8 9 9 9 8 9 11 10 10 7 4 6 6 6 6 11 13 9 9 8 9 8
6 5 4 6 5 15 10 4 5 7 17 6 9 7 11 9 9 9 9 8 8 8 8 8 8 9 9 9 9 8 8 5 6 8 9 8 7 7 7 6 6 8 13 13 12 10 10 9 9
7 6 3 3 4 2 5 5 15 25 22 25 20 19 12 12 12 11 11 9 9 8 8 8 8 9 10 9 8 8 7 8 10 10 7 7 8 8 8 6 7 10 13 13 14 9 10 10 10
5 2 5 4 5 6 7 10 5 19 19 19 20 19 19 21 20 17 16 14 8 7 7 8 9 9 9 9 7 11 10 9 10 9 8 9 9 7 7 9 9 11 12 13 10 9 12 12 10
5 5 5 2 3 4 7 4 14 15 16 19 19 16 15 17 16 19 19 17 8 8 8 10 12 9 8 8 8 12 12 12 11 9 10 8 9 12 13 12 10 11 13 8 11 13 14 14 13
7 4 4 5 7 5 5 12 18 14 14 16 16 17 19 19 17 20 15 13 14 12 10 10 12 8 11 9 13 14 14 12 11 12 12 10 12 12 11 9 13 12 9 13 13 14 13 13 13
Wind_Direction
308 304 105 33 52 68 273 19 126 44 41 346 20 82 77 63 65 123 244 117 119 133 139 141 147 155 161 158 161 159 150 149 152 146 151 135 131 95 148 161 154 149 139 140 121 118 113 108 104
297 316 46 70 77 52 339 318 68 78 65 357 53 86 68 55 49 110 96 137 136 142 146 137 149 155 164 172 179 176 168 173 172 169 188 194 184 181 192 196 175 169 165 171 153 144 142 127 115
274 209 83 99 100 357 125 326 67 70 38 23 24 69 47 354 58 109 199 137 144 147 153 156 162 165 170 183 188 189 187 186 190 192 205 221 222 220 222 231 196 189 186 190 182 172 167 158 148
329 13 11 81 130 319 112 355 22 70 5 29 125 57 39 39 86 128 97 139 126 146 149 153 160 163 167 198 210 208 204 204 207 200 215 223 228 231 227 228 224 206 204 203 202 198 194 183 185
40 67 33 56 42 100 46 21 33 38 85 44 86 94 64 1 84 98 59 97 100 95 126 153 159 164 176 192 216 209 210 220 228 230 226 237 238 238 236 237 234 226 217 212 213 213 212 212 208
11 96 44 64 117 24 41 47 54 52 25 52 79 81 13 316 31 14 71 75 79 95 71 46 143 180 206 208 208 204 214 220 223 232 236 244 255 248 240 243 240 238 226 222 220 219 218 222 224
102 71 225 51 115 42 16 354 49 64 61 15 123 101 53 6 344 62 71 64 63 55 52 38 38 22 353 277 264 254 251 246 235 237 243 247 248 251 245 240 239 234 227 225 224 226 225 224 226
98 94 358 20 77 49 360 54 86 74 16 134 46 58 40 321 7 69 67 63 61 62 51 39 29 19 7 27 18 8 311 285 271 267 262 255 253 255 243 243 237 236 229 224 224 224 229 230 231
80 60 26 26 53 340 351 37 333 16 97 54 76 93 67 45 46 47 47 51 50 45 48 45 36 27 15 16 14 11 6 355 359 337 312 290 266 252 248 239 236 235 233 229 221 219 223 225 226
78 82 63 71 54 8 338 12 332 62 22 55 43 24 30 48 46 52 49 47 44 40 37 38 33 23 15 23 10 358 350 350 351 337 324 323 324 294 269 258 248 237 233 230 226 225 221 222 204
49 116 353 42 58 8 325 338 337 84 50 58 74 52 40 44 44 43 41 49 50 43 42 36 32 24 21 15 6 1 353 357 349 339 321 301 308 302 311 304 293 274 244 224 229 231 217 208 207
91 58 37 41 44 21 341 315 66 51 124 114 93 94 66 53 48 39 40 34 30 35 26 20 28 23 14 5 1 348 356 350 347 337 336 328 318 314 315 307 327 296 274 215 222 216 234 226 213
68 4 86 127 131 61 23 342 148 141 150 133 103 84 78 75 61 48 41 39 30 33 20 13 26 17 14 10 350 348 344 345 335 336 341 343 337 316 333 322 306 328 300 260 225 237 240 234 224
290 31 154 115 111 84 24 268 174 202 166 138 97 92 84 81 79 57 47 34 32 33 23 13 21 15 11 2 350 346 347 345 356 352 348 348 347 345 338 335 325 325 294 274 249 238 234 236 246
236 153 202 5 343 20 321 5 73 173 148 94 105 103 94 92 76 74 64 49 37 22 34 27 25 17 8 351 348 359 343 353 355 348 349 348 348 336 339 339 332 308 273 276 235 230 247 249 241
343 55 76 327 3 16 71 263 168 44 93 76 119 111 100 90 96 85 69 60 36 42 43 38 33 21 4 355 355 353 339 338 346 347 340 336 337 334 323 326 323 320 322 322 320 291 263 236 232
11 346 348 328 105 355 55 279 312 350 98 99 111 104 89 81 62 59 63 53 27 58 51 37 33 29 15 355 355 339 332 340 328 326 331 343 340 335 341 333 321 322 321 309 309 310 293 282 263
309 328 297 278 338 349 309 279 300 310 103 82 64 60 61 54 59 46 32 23 12 28 25 32 25 15 14 28 352 336 336 333 327 329 336 337 331 339 336 326 323 324 322 313 290 281 285 271 272
286 269 295 275 351 2 304 300 311 334 78 75 61 55 48 37 352 39 20 11 14 3 343 336 320 303 47 35 344 351 310 296 310 314 327 332 332 332 327 317 317 319 313 300 299 282 275 282 251
350 310 318 296 2 322 326 335 58 59 77 79 74 52 44 26 17 360 1 11 2 340 332 320 304 325 305 210 233 209 247 275 267 292 305 310 319 319 318 318 313 305 303 300 301 293 286 266 224
339 15 307 275 340 306 354 20 42 28 62 51 38 45 41 37 14 355 4 353 339 340 328 333 290 281 280 246 264 290 298 297 287 281 275 274 295 302 307 314 317 312 311 302 297 295 278 281 273
307 330 314 302 356 301 24 284 63 59 59 45 26 26 13 3 358 359 1 347 334 321 314 314 297 290 284 269 268 249 265 260 238 252 255 279 273 280 286 308 310 311 307 288 292 296 294 289 278
276 317 283 288 230 7 343 58 1 32 25 13 6 6 349 336 347 339 323 300 280 279 296 305 310 324 320 288 293 270 283 263 255 255 264 264 270 261 270 280 298 302 312 297 312 321 318 308 285
338 305 312 39 111 94 220 180 316 42 3 351 348 339 333 333 332 319 301 310 312 314 322 321 325 322 326 314 295 287 270 274 279 272 270 270 258 259 253 266 276 289 300 290 293 294 287 293 291
2 2 346 2 5 246 4 5 203 96 23 22 355 355 349 343 335 321 318 308 304 312 316 322 328 314 307 306 297 290 286 286 278 286 292 284 271 253 258 255 258 281 293 290 278 279 273 281 282
333 52 90 306 322 299 316 179 205 69 15 14 341 359 349 327 326 315 302 300 302 302 315 320 315 307 300 294 296 293 287 277 275 280 282 278 275 270 262 256 257 284 292 282 278 270 278 271 270
336 34 201 247 276 331 261 299 322 5 15 8 3 350 339 328 324 317 308 304 299 316 308 299 302 300 301 297 293 290 282 282 287 278 268 272 277 282 279 271 271 290 285 275 274 270 272 269 266
97 221 8 5 319 303 288 315 274 5 354 354 356 350 343 336 341 332 322 313 310 315 302 306 303 289 288 291 293 306 287 278 284 283 271 277 278 266 265 273 271 279 274 271 272 281 276 272 262
14 20 30 306 283 281 301 293 340 356 354 355 337 329 327 317 315 334 320 327 311 318 314 310 306 298 295 292 292 298 292 288 284 273 283 267 272 284 283 279 267 277 278 260 279 270 264 259 259
91 72 99 122 290 237 245 295 7 9 348 326 318 318 314 326 332 321 313 328 326 319 304 307 302 296 299 283 305 299 295 289 286 289 283 269 279 279 271 267 282 282 272 281 268 268 266 263 256